Terminal Aerodrome Forecast
Issued by NWS Shreveport, LA

Home | Current Version | Previous Version | Text Only | Print | Product List | Glossary On
Versions: 1 2 3 4 5 6 7 8 9 10 11 12 13
000
FTUS44 KSHV 311127
TAFTXK
TAF
KTXK 311127Z 3112/0112 05004KT P6SM FEW140 SCT250
     FM311500 07010KT P6SM FEW120 SCT250
     FM010000 08004KT P6SM SCT120 SCT250
     FM010600 VRB03KT P6SM SKC=

USA.gov is the U.S. government's official web portal to all federal, state and local government web resources and services.